This is the latest recevied weather packets stored in our database for station/object W5ADC. If no packets are shown the sender has not sent any weather packets the latest 10 day(s).
| Time | Temp. | Humidity | Pressure | Rain* | Wind** | Luminosity | Snow |
|---|---|---|---|---|---|---|---|
| 1787851509 | 33.89° C | 55% | 1012.5 hPa | 0 mm | - | 751 W/m² | - |
| 1787851204 | 33.33° C | 55% | 1012.7 hPa | 0 mm | - | 740 W/m² | - |
| 1787850900 | 33.33° C | 56% | 1012.8 hPa | 0 mm | - | 728 W/m² | - |
| 1787850595 | 33.89° C | 56% | 1012.8 hPa | 0 mm | - | 717 W/m² | - |
| 1787850289 | 32.78° C | 58% | 1012.7 hPa | 0 mm | - | 705 W/m² | - |
| 1787849984 | 32.78° C | 57% | 1012.9 hPa | 0 mm | - | 697 W/m² | - |
| 1787849679 | 32.78° C | 59% | 1012.7 hPa | 0 mm | - | 685 W/m² | - |
| 1787849373 | 32.78° C | 59% | 1013 hPa | 0 mm | - | 673 W/m² | - |
| 1787849067 | 32.78° C | 59% | 1012.9 hPa | 0 mm | - | 663 W/m² | - |
| 1787848767 | 32.22° C | 60% | 1012.8 hPa | 0 mm | - | 652 W/m² | - |
| 1787848460 | 32.22° C | 61% | 1012.7 hPa | 0 mm | - | 644 W/m² | - |
| 1787848156 | 32.22° C | 62% | 1013 hPa | 0 mm | - | 630 W/m² | - |
| 1787847850 | 32.22° C | 62% | 1013 hPa | 0 mm | - | 619 W/m² | - |
| 1787847545 | 31.67° C | 63% | 1013 hPa | 0 mm | - | 606 W/m² | - |
| 1787847241 | 32.22° C | 62% | 1013 hPa | 0 mm | - | 594 W/m² | - |
| 1787846938 | 31.11° C | 65% | 1012.8 hPa | 0 mm | - | 584 W/m² | - |
| 1787846637 | 30.56° C | 66% | 1012.9 hPa | 0 mm | - | 569 W/m² | - |
| 1787846331 | 31.11° C | 66% | 1012.9 hPa | 0 mm | - | 554 W/m² | - |
| 1787846028 | 31.11° C | 66% | 1012.8 hPa | 0 mm | - | 543 W/m² | - |
| 1787845724 | 31.11° C | 65% | 1012.9 hPa | 0 mm | - | 526 W/m² | - |
| 1787845423 | 30.56° C | 67% | 1012.7 hPa | 0 mm | - | 516 W/m² | - |
| 1787845119 | 30.56° C | 67% | 1012.8 hPa | 0 mm | - | 500 W/m² | - |
| 1787844815 | 30.56° C | 68% | 1012.9 hPa | 0 mm | - | 488 W/m² | - |
| 1787844514 | 30° C | 69% | 1012.5 hPa | 0 mm | - | 472 W/m² | - |
| 1787844209 | 30° C | 68% | 1012.6 hPa | 0 mm | - | 455 W/m² | - |
* Rain latest hour (hover to see other rain measurements)
** Current wind speed in m/s (hover to see current wind gust speed)